Lubbock, TX

9:08 PM CST on November 21, 2019 (GMT -0600)
Lubbock International

Weather History for KLBB - September, 2019

Change the Weather History Date:

Sunday, September 1, 2019

  Actual Average Record
Temperature  
Mean Temperature 81 °F 76 °F  
Max Temperature 93 °F 89 °F 104 °F (2014)
Min Temperature 68 °F 64 °F 43 °F (1915)
Degree Days  
Heating Degree Days 0 0  
Month to date heating degree days 0 0  
Since 1 July heating degree days 0 0  
Cooling Degree Days 16 11  
Month to date cooling degree days 16 11  
Year to date cooling degree days 1734 1537  
Growing Degree Days 31 (Base 50)    
Moisture  
Dew Point 60 °F    
Average Humidity 52    
Maximum Humidity 76    
Minimum Humidity 29    
Precipitation  
Precipitation 0.00 in 0.08 in 1.29 in (1935)
Month to date precipitation 0.00 0.08  
Year to date precipitation 15.59 13.15  
Snow  
Snow 0.00 in 0.00 in 0.00 in (2002)
Month to date snowfall 0.0 0.0  
Since 1 July snowfall 0.0 0.0  
Since 1 September snowfall 0.0 0.0  
Snow Depth 0.00 in    
Sea Level Pressure  
Sea Level Pressure 29.99 in    
Wind  
Wind Speed 6 mph ()    
Max Wind Speed 15 mph    
Max Gust Speed 20 mph    
Visibility 10.0 miles    
Events      
T = Trace of Precipitation, MM = Missing Value Source: Averaged Metar Reports

Daily Weather History Graph

Daily Weather History Graph

Search for Another Location

Airport or City:

Astronomy

Sep. 01, 2019 Rise Set
Actual Time 7:21 AM CDT 8:12 PM CDT
Civil Twilight 6:55 AM CDT 8:38 PM CDT
Nautical Twilight 6:25 AM CDT 9:08 PM CDT
Astronomical Twilight 5:54 AM CDT 9:39 PM CDT
Moon 9:47 AM CDT (9/1) 10:09 PM CDT (9/1)
Length of Visible Light 13h 42m
Length of Day
12h 51m
Waxing Crescent, 8% of the Moon is Illuminated
Sep 1
Waxing Crescent
Sep 5
First Quarter
Sep 13
Full
Sep 21
Last Quarter
Sep 28
New

Hourly Weather History & Observations

Time (CDT) Temp. Heat Index Dew Point Humidity Pressure Visibility Wind Dir Wind Speed Gust Speed Precip Events Conditions
12:53 AM 79.0 °F - 60.1 °F 52% 29.99 in 10.0 mi North 10.4 mph - N/A   Mostly Cloudy
1:53 AM 75.9 °F - 57.9 °F 54% 30.02 in 10.0 mi NNE 9.2 mph - N/A   Mostly Cloudy
2:53 AM 72.0 °F - 60.1 °F 66% 30.01 in 10.0 mi ENE 6.9 mph - N/A   Mostly Cloudy
3:53 AM 71.1 °F - 60.1 °F 68% 30.01 in 10.0 mi NE 13.8 mph - N/A   Mostly Cloudy
4:53 AM 70.0 °F - 61.0 °F 73% 29.99 in 10.0 mi East 3.5 mph - N/A   Mostly Cloudy
5:53 AM 69.1 °F - 61.0 °F 75% 29.99 in 10.0 mi South 5.8 mph - N/A   Mostly Cloudy
6:53 AM 68.0 °F - 60.1 °F 76% 30.03 in 10.0 mi WNW 4.6 mph - N/A   Mostly Cloudy
7:53 AM 69.1 °F - 60.1 °F 73% 30.04 in 10.0 mi SSE 4.6 mph - N/A   Mostly Cloudy
8:53 AM 73.9 °F - 63.0 °F 68% 30.03 in 10.0 mi Variable 3.5 mph - N/A   Scattered Clouds
9:53 AM 75.9 °F - 63.0 °F 64% 30.04 in 10.0 mi SSE 4.6 mph - N/A   Scattered Clouds
10:53 AM 81.0 °F 82.2 °F 63.0 °F 54% 30.04 in 10.0 mi Variable 5.8 mph - N/A   Scattered Clouds
11:53 AM 84.0 °F 84.5 °F 62.1 °F 47% 30.03 in 10.0 mi SW 8.1 mph - N/A   Partly Cloudy
12:53 PM 89.1 °F 88.2 °F 59.0 °F 36% 30.00 in 10.0 mi Variable 3.5 mph - N/A   Partly Cloudy
1:53 PM 91.0 °F 89.7 °F 57.0 °F 32% 29.99 in 10.0 mi NE 5.8 mph - N/A   Partly Cloudy
2:53 PM 91.9 °F 90.6 °F 57.0 °F 31% 29.97 in 10.0 mi ENE 4.6 mph - N/A   Scattered Clouds
3:53 PM 93.0 °F 91.7 °F 57.0 °F 30% 29.94 in 10.0 mi Variable 4.6 mph - N/A   Scattered Clouds
4:53 PM 93.9 °F 92.6 °F 57.0 °F 29% 29.92 in 10.0 mi Variable 4.6 mph - N/A   Scattered Clouds
5:53 PM 93.0 °F 91.7 °F 57.0 °F 30% 29.92 in 10.0 mi East 8.1 mph - N/A   Scattered Clouds
6:53 PM 90.0 °F 88.8 °F 57.9 °F 34% 29.93 in 10.0 mi SE 10.4 mph - N/A   Scattered Clouds
7:53 PM 86.0 °F 85.4 °F 59.0 °F 40% 29.94 in 10.0 mi SSE 8.1 mph - N/A   Partly Cloudy
8:53 PM 82.9 °F 83.2 °F 60.1 °F 46% 29.96 in 10.0 mi SE 9.2 mph - N/A   Partly Cloudy
9:53 PM 80.1 °F 80.9 °F 60.1 °F 50% 29.98 in 10.0 mi SE 6.9 mph - N/A   Clear
10:53 PM 79.0 °F - 60.1 °F 52% 29.99 in 10.0 mi SSE 8.1 mph - N/A   Partly Cloudy
11:53 PM 75.9 °F - 61.0 °F 60% 30.00 in 10.0 mi SSE 8.1 mph - N/A   Clear